Location: Stull Observatory
(42.2506°N, 77.7903°W)
Time: 03:21:49
(UTC-04:00)

ISS - All Passes

Search period start: 25 May 2015 00:00
Search period end: 04 June 2015 00:00
Orbit: 399 x 404 km, 51.6° (Epoch: 25 May)

Date Brightness Start Highest point End Pass type
(mag) Time Alt. Az. Time Alt. Az. Time Alt. Az.
25 May - 00:58:08 10° SW 01:01:21 61° SE 01:04:34 10° ENE visible
25 May - 02:35:11 10° WNW 02:37:59 25° NNW 02:40:45 10° NE visible
25 May - 04:13:07 10° NW 04:15:13 16° N 04:17:18 10° NE visible
25 May - 05:49:36 10° NW 05:52:25 26° NNE 05:55:16 10° E daylight
25 May - 07:25:48 10° WNW 07:29:01 56° SW 07:32:14 10° SE daylight
26 May - 00:05:20 10° SSW 00:08:13 31° SE 00:11:10 10° ENE night (unlit)
26 May - 01:41:34 10° W 01:44:36 36° NNW 01:47:40 10° NE visible
26 May - 03:19:32 10° NW 03:21:42 16° N 03:23:52 10° NE visible
26 May - 04:56:29 10° NW 04:59:00 20° NNE 05:01:32 10° ENE visible
26 May - 06:32:33 10° NW 06:35:50 76° NNE 06:39:06 10° ESE daylight
26 May - 08:10:15 10° WSW 08:11:53 13° SW 08:13:25 10° SSW daylight
26 May - 23:13:04 10° S 23:15:09 16° SE 23:17:20 10° E night (unlit)
27 May - 00:48:04 10° WSW 00:51:17 60° NNW 00:54:32 10° NE visible
27 May - 02:25:49 10° WNW 02:28:13 19° NNW 02:30:36 10° NE visible
27 May - 04:03:17 10° NW 04:05:30 17° N 04:07:46 10° NE visible
27 May - 05:39:24 10° NW 05:42:33 43° NNE 05:45:41 10° ESE daylight
27 May - 07:16:06 10° W 07:18:50 24° SW 07:21:32 10° SSE daylight
27 May - 23:54:49 10° SW 23:58:02 73° SE 00:01:18 10° ENE visible
28 May - 01:32:02 10° WNW 01:34:44 23° NNW 01:37:26 10° NE visible
28 May - 03:09:53 10° NW 03:11:59 16° N 03:14:04 10° NE visible
28 May - 04:46:16 10° NW 04:49:10 28° NNE 04:52:04 10° E visible
28 May - 06:22:33 10° WNW 06:25:42 47° SW 06:28:51 10° SE daylight
28 May - 23:01:51 10° SSW 23:04:51 36° SE 23:07:54 10° ENE night (unlit)
29 May - 00:38:19 10° W 00:41:18 32° NNW 00:44:18 10° NE visible
29 May - 02:16:18 10° NW 02:18:26 16° N 02:20:33 10° NE visible
29 May - 03:53:07 10° NW 03:55:42 21° NNE 03:58:18 10° ENE visible
29 May - 05:29:12 10° NW 05:32:29 88° NE 05:35:45 10° SE daylight
29 May - 07:07:29 10° WSW 07:08:29 11° SW 07:09:21 10° SW daylight
29 May - 22:09:22 10° S 22:11:44 19° SE 22:14:09 10° E night (unlit)
29 May - 23:44:44 10° WSW 23:47:55 52° NNW 23:51:07 10° NE visible
30 May - 01:22:33 10° NW 01:24:53 18° N 01:27:12 10° NE visible
30 May - 02:59:54 10° NW 03:02:11 17° N 03:04:29 10° NE visible
30 May - 04:35:59 10° NW 04:39:10 49° NNE 04:42:21 10° ESE visible
30 May - 06:12:50 10° W 06:15:23 21° SW 06:17:54 10° S daylight
30 May - 22:51:22 10° SW 22:54:36 85° SSE 22:57:52 10° ENE visible
31 May - 00:28:44 10° WNW 00:31:21 22° NNW 00:33:59 10° NE visible
31 May - 02:06:31 10° NW 02:08:37 16° N 02:10:44 10° NE visible
31 May - 03:42:48 10° NW 03:45:46 31° NNE 03:48:44 10° E visible
31 May - 05:19:09 10° WNW 05:22:14 40° SW 05:25:18 10° SSE daylight
31 May - 21:58:16 10° SSW 22:01:22 43° SE 22:04:28 10° ENE visible
31 May - 23:34:57 10° W 23:37:52 29° NNW 23:40:47 10° NE visible
01 Jun - 01:12:56 10° NW 01:15:02 16° N 01:17:07 10° NE visible
01 Jun - 02:49:37 10° NW 02:52:16 22° NNE 02:54:57 10° ENE visible
01 Jun - 04:25:44 10° WNW 04:28:59 80° SW 04:32:15 10° SE visible
01 Jun - 21:05:36 10° S 21:08:10 22° SE 21:10:48 10° E daylight
01 Jun - 22:41:16 10° WSW 22:44:25 46° NNW 22:47:34 10° NE visible
02 Jun - 00:19:10 10° NW 00:21:25 17° N 00:23:41 10° NE visible
02 Jun - 01:56:22 10° NW 01:58:43 18° N 02:01:05 10° ENE visible
02 Jun - 03:32:26 10° NW 03:35:39 56° NNE 03:38:52 10° ESE visible
02 Jun - 05:09:29 10° W 05:11:49 18° SW 05:14:05 10° S daylight
02 Jun - 20:13:52 10° SSE 20:15:02 12° SE 20:16:18 10° ESE daylight
02 Jun - 21:47:48 10° WSW 21:51:02 83° NW 21:54:18 10° NE visible
02 Jun - 23:25:17 10° WNW 23:27:50 21° NNW 23:30:23 10° NE visible
03 Jun - 01:02:59 10° NW 01:05:07 16° N 01:07:15 10° NE visible
03 Jun - 02:39:12 10° NW 02:42:13 34° NNE 02:45:15 10° E visible
03 Jun - 04:15:38 10° WNW 04:18:38 34° SW 04:21:37 10° SSE visible
03 Jun - 20:54:36 10° SW 20:57:44 50° SE 21:00:54 10° ENE daylight
03 Jun - 22:31:26 10° W 22:34:17 27° NNW 22:37:08 10° NE visible
